iso_date,epoch_date,Year,Hour,Min,DOY,POS_DOY,Lat,Lon,BP,Ts,Ta,has_bp,has_ts,has_ta,BuoyID,Buoy_Type,Buoy_Owner,Logistics,Hemisphere
2016-09-18T01:00:28Z,1474160429,2016,1,0,262.042,262.042,86.42898,58.54318,-999.00,-999.00,-999.0,no,no,no,300234062991690,IMB,AWI-USIABP,unknown,North
2016-09-18T07:00:28Z,1474182029,2016,7,0,262.292,262.292,86.62528,59.34933,-999.00,-999.00,-999.0,no,no,no,300234062991690,IMB,AWI-USIABP,unknown,North
2016-09-18T13:00:28Z,1474203629,2016,13,0,262.542,262.542,86.48375,60.03782,-999.00,-999.00,-999.0,no,no,no,300234062991690,IMB,AWI-USIABP,unknown,North
2016-09-19T01:00:28Z,1474246829,2016,1,0,263.042,263.042,86.51891,61.05999,-999.00,-999.00,-999.0,no,no,no,300234062991690,IMB,AWI-USIABP,unknown,North
2016-09-19T07:00:28Z,1474268429,2016,7,0,263.292,263.292,86.58132,60.47864,-999.00,-999.00,-999.0,no,no,no,300234062991690,IMB,AWI-USIABP,unknown,North
2016-09-19T13:00:28Z,1474290029,2016,13,0,263.542,263.542,86.56747,61.29405,-999.00,-999.00,-999.0,no,no,no,300234062991690,IMB,AWI-USIABP,unknown,North
2016-09-20T01:00:28Z,1474333229,2016,1,0,264.042,264.042,86.4703,60.83239,-999.00,-999.00,-999.0,no,no,no,300234062991690,IMB,AWI-USIABP,unknown,North
2016-09-20T07:00:28Z,1474354829,2016,7,0,264.292,264.292,86.55016,60.77195,-999.00,-999.00,-999.0,no,no,no,300234062991690,IMB,AWI-USIABP,unknown,North
2016-09-20T13:00:28Z,1474376429,2016,13,0,264.542,264.542,86.3569,61.1645,-999.00,-999.00,-999.0,no,no,no,300234062991690,IMB,AWI-USIABP,unknown,North
2016-09-21T01:00:28Z,1474419629,2016,1,0,265.042,265.042,86.24205,60.25512,-999.00,-999.00,-999.0,no,no,no,300234062991690,IMB,AWI-USIABP,unknown,North
2016-09-21T07:00:28Z,1474441229,2016,7,0,265.292,265.292,85.24031,37.64762,-999.00,-999.00,-999.0,no,no,no,300234062991690,IMB,AWI-USIABP,unknown,North
2016-09-21T13:00:28Z,1474462829,2016,13,0,265.542,265.542,86.24205,60.25512,-999.00,-999.00,-999.0,no,no,no,300234062991690,IMB,AWI-USIABP,unknown,North
2016-09-22T01:00:28Z,1474506029,2016,1,0,266.042,266.042,86.24205,60.25512,-999.00,-999.00,-999.0,no,no,no,300234062991690,IMB,AWI-USIABP,unknown,North
2016-09-22T07:00:28Z,1474527629,2016,7,0,266.292,266.292,86.24205,60.25512,-999.00,-999.00,-999.0,no,no,no,300234062991690,IMB,AWI-USIABP,unknown,North
2016-09-22T13:00:28Z,1474549229,2016,13,0,266.542,266.542,86.26257,61.95985,-999.00,-999.00,-999.0,no,no,no,300234062991690,IMB,AWI-USIABP,unknown,North
2016-09-23T01:00:28Z,1474592429,2016,1,0,267.042,267.042,86.16757,62.71579,-999.00,-999.00,-999.0,no,no,no,300234062991690,IMB,AWI-USIABP,unknown,North
2016-09-23T13:00:28Z,1474635629,2016,13,0,267.542,267.542,86.18383,63.19421,-999.00,-999.00,-999.0,no,no,no,300234062991690,IMB,AWI-USIABP,unknown,North
2016-09-24T19:00:28Z,1474743629,2016,19,0,268.792,268.792,86.00791,63.89515,-999.00,-999.00,-999.0,no,no,no,300234062991690,IMB,AWI-USIABP,unknown,North
2016-09-25T07:00:28Z,1474786829,2016,7,0,269.292,269.292,86.00775,62.74467,-999.00,-999.00,-999.0,no,no,no,300234062991690,IMB,AWI-USIABP,unknown,North
2016-09-25T19:00:28Z,1474830029,2016,19,0,269.792,269.792,85.97579,64.11973,-999.00,-999.00,-999.0,no,no,no,300234062991690,IMB,AWI-USIABP,unknown,North
2016-09-26T07:00:28Z,1474873229,2016,7,0,270.292,270.292,86.36978,66.7271,-999.00,-999.00,-999.0,no,no,no,300234062991690,IMB,AWI-USIABP,unknown,North
2016-09-26T19:00:28Z,1474916429,2016,19,0,270.792,270.792,85.95896,64.79888,-999.00,-999.00,-999.0,no,no,no,300234062991690,IMB,AWI-USIABP,unknown,North
2016-09-27T07:00:28Z,1474959629,2016,7,0,271.292,271.292,85.92802,63.88609,-999.00,-999.00,-999.0,no,no,no,300234062991690,IMB,AWI-USIABP,unknown,North
2016-09-27T19:00:28Z,1475002829,2016,19,0,271.792,271.792,85.89419,65.22486,-999.00,-999.00,-999.0,no,no,no,300234062991690,IMB,AWI-USIABP,unknown,North
2016-09-28T07:00:28Z,1475046029,2016,7,0,272.292,272.292,85.96007,63.66231,-999.00,-999.00,-999.0,no,no,no,300234062991690,IMB,AWI-USIABP,unknown,North
2016-09-28T19:00:28Z,1475089229,2016,19,0,272.792,272.792,85.81342,64.09349,-999.00,-999.00,-999.0,no,no,no,300234062991690,IMB,AWI-USIABP,unknown,North
2016-09-29T07:00:28Z,1475132429,2016,7,0,273.292,273.292,86.27563,66.14953,-999.00,-999.00,-999.0,no,no,no,300234062991690,IMB,AWI-USIABP,unknown,North
2016-09-30T01:00:28Z,1475197229,2016,1,0,274.042,274.042,85.71778,63.64954,-999.00,-999.00,-999.0,no,no,no,300234062991690,IMB,AWI-USIABP,unknown,North
2016-10-01T07:00:28Z,1475305229,2016,7,0,275.292,275.292,85.45671,66.26706,-999.00,-999.00,-999.0,no,no,no,300234062991690,IMB,AWI-USIABP,unknown,North
2016-10-02T19:00:28Z,1475434829,2016,19,0,276.792,276.792,85.95753,61.38954,-999.00,-999.00,-999.0,no,no,no,300234062991690,IMB,AWI-USIABP,unknown,North
2016-10-03T07:00:28Z,1475478029,2016,7,0,277.292,277.292,86.02286,62.04903,-999.00,-999.00,-999.0,no,no,no,300234062991690,IMB,AWI-USIABP,unknown,North
2016-10-03T19:00:28Z,1475521229,2016,19,0,277.792,277.792,86.08765,62.73053,-999.00,-999.00,-999.0,no,no,no,300234062991690,IMB,AWI-USIABP,unknown,North
2016-10-04T07:00:28Z,1475564429,2016,7,0,278.292,278.292,86.26257,61.95985,-999.00,-999.00,-999.0,no,no,no,300234062991690,IMB,AWI-USIABP,unknown,North
2016-10-04T19:00:28Z,1475607629,2016,19,0,278.792,278.792,86.15189,63.43495,-999.00,-999.00,-999.0,no,no,no,300234062991690,IMB,AWI-USIABP,unknown,North
2016-10-05T07:00:28Z,1475650829,2016,7,0,279.292,279.292,86.08782,63.90458,-999.00,-999.00,-999.0,no,no,no,300234062991690,IMB,AWI-USIABP,unknown,North
2016-10-05T19:00:28Z,1475694029,2016,19,0,279.792,279.792,86.38819,65.97975,-999.00,-999.00,-999.0,no,no,no,300234062991690,IMB,AWI-USIABP,unknown,North
2016-10-06T07:00:28Z,1475737229,2016,7,0,280.292,280.292,86.29357,65.41843,-999.00,-999.00,-999.0,no,no,no,300234062991690,IMB,AWI-USIABP,unknown,North
2016-10-07T13:00:28Z,1475845229,2016,13,0,281.542,281.542,86.38376,67.24902,-999.00,-999.00,-999.0,no,no,no,300234062991690,IMB,AWI-USIABP,unknown,North
2016-10-08T01:00:28Z,1475888429,2016,1,0,282.042,282.042,85.56984,81.148,-999.00,-999.00,-999.0,no,no,no,300234062991690,IMB,AWI-USIABP,unknown,North
2016-10-09T07:00:28Z,1475996429,2016,7,0,283.292,283.292,86.31769,67.68056,-999.00,-999.00,-999.0,no,no,no,300234062991690,IMB,AWI-USIABP,unknown,North
2016-10-09T13:00:28Z,1476018029,2016,13,0,283.542,283.542,86.23795,67.59016,-999.00,-999.00,-999.0,no,no,no,300234062991690,IMB,AWI-USIABP,unknown,North
2016-10-10T01:00:28Z,1476061229,2016,1,0,284.042,284.042,86.27098,67.38014,-999.00,-999.00,-999.0,no,no,no,300234062991690,IMB,AWI-USIABP,unknown,North
2016-10-10T13:00:28Z,1476104429,2016,13,0,284.542,284.542,86.32275,66.4346,-999.00,-999.00,-999.0,no,no,no,300234062991690,IMB,AWI-USIABP,unknown,North
2016-10-11T01:00:28Z,1476147629,2016,1,0,285.042,285.042,85.86782,76.44624,-999.00,-999.00,-999.0,no,no,no,300234062991690,IMB,AWI-USIABP,unknown,North
2016-10-11T13:00:28Z,1476190829,2016,13,0,285.542,285.542,86.51744,66.33686,-999.00,-999.00,-999.0,no,no,no,300234062991690,IMB,AWI-USIABP,unknown,North
2016-10-12T01:00:28Z,1476234029,2016,1,0,286.042,286.042,86.58526,64.5108,-999.00,-999.00,-999.0,no,no,no,300234062991690,IMB,AWI-USIABP,unknown,North
2016-10-12T13:00:28Z,1476277229,2016,13,0,286.542,286.542,86.56972,63.97041,-999.00,-999.00,-999.0,no,no,no,300234062991690,IMB,AWI-USIABP,unknown,North
2016-10-13T01:00:28Z,1476320429,2016,1,0,287.042,287.042,86.58582,63.16596,-999.00,-999.00,-999.0,no,no,no,300234062991690,IMB,AWI-USIABP,unknown,North
2016-10-13T13:00:28Z,1476363629,2016,13,0,287.542,287.542,86.60124,62.35402,-999.00,-999.00,-999.0,no,no,no,300234062991690,IMB,AWI-USIABP,unknown,North
2016-10-14T01:00:28Z,1476406829,2016,1,0,288.042,288.042,85.9046,72.67591,-999.00,-999.00,-999.0,no,no,no,300234062991690,IMB,AWI-USIABP,unknown,North
2016-10-14T13:00:28Z,1476450029,2016,13,0,288.542,288.542,86.48959,62.65012,-999.00,-999.00,-999.0,no,no,no,300234062991690,IMB,AWI-USIABP,unknown,North
2016-10-15T01:00:28Z,1476493229,2016,1,0,289.042,289.042,86.50459,61.8584,-999.00,-999.00,-999.0,no,no,no,300234062991690,IMB,AWI-USIABP,unknown,North
2016-10-16T07:00:28Z,1476601229,2016,7,0,290.292,290.292,86.16573,61.51781,-999.00,-999.00,-999.0,no,no,no,300234062991690,IMB,AWI-USIABP,unknown,North
2016-10-17T07:00:28Z,1476687629,2016,7,0,291.292,291.292,85.9217,50.71059,-999.00,-999.00,-999.0,no,no,no,300234062991690,IMB,AWI-USIABP,unknown,North
2016-10-18T07:00:28Z,1476774029,2016,7,0,292.292,292.292,86.56934,57.80427,-999.00,-999.00,-999.0,no,no,no,300234062991690,IMB,AWI-USIABP,unknown,North
2016-10-19T07:00:28Z,1476860429,2016,7,0,293.292,293.292,86.56934,57.80427,-999.00,-999.00,-999.0,no,no,no,300234062991690,IMB,AWI-USIABP,unknown,North
2016-10-20T07:00:28Z,1476946829,2016,7,0,294.292,294.292,85.74796,50.13255,-999.00,-999.00,-999.0,no,no,no,300234062991690,IMB,AWI-USIABP,unknown,North
2016-10-21T07:00:28Z,1477033229,2016,7,0,295.292,295.292,86.51101,56.30993,-999.00,-999.00,-999.0,no,no,no,300234062991690,IMB,AWI-USIABP,unknown,North
2016-10-22T07:00:28Z,1477119629,2016,7,0,296.292,296.292,86.53755,53.84181,-999.00,-999.00,-999.0,no,no,no,300234062991690,IMB,AWI-USIABP,unknown,North
2016-10-23T07:00:28Z,1477206029,2016,7,0,297.292,297.292,85.63863,45.0,-999.00,-999.00,-999.0,no,no,no,300234062991690,IMB,AWI-USIABP,unknown,North
2016-10-24T07:00:28Z,1477292429,2016,7,0,298.292,298.292,86.37756,54.26452,-999.00,-999.00,-999.0,no,no,no,300234062991690,IMB,AWI-USIABP,unknown,North
2016-10-25T07:00:28Z,1477378829,2016,7,0,299.292,299.292,86.30657,53.68635,-999.00,-999.00,-999.0,no,no,no,300234062991690,IMB,AWI-USIABP,unknown,North
2016-10-26T13:00:28Z,1477486829,2016,13,0,300.542,300.542,86.46631,53.24632,-999.00,-999.00,-999.0,no,no,no,300234062991690,IMB,AWI-USIABP,unknown,North
2016-10-27T01:00:28Z,1477530029,2016,1,0,301.042,301.042,86.4448,52.78356,-999.00,-999.00,-999.0,no,no,no,300234062991690,IMB,AWI-USIABP,unknown,North
2016-10-27T13:00:28Z,1477573229,2016,13,0,301.542,301.542,86.46631,53.24632,-999.00,-999.00,-999.0,no,no,no,300234062991690,IMB,AWI-USIABP,unknown,North
2016-10-28T01:00:28Z,1477616429,2016,1,0,302.042,302.042,86.52333,52.53945,-999.00,-999.00,-999.0,no,no,no,300234062991690,IMB,AWI-USIABP,unknown,North
2016-10-28T13:00:28Z,1477659629,2016,13,0,302.542,302.542,86.55164,52.17725,-999.00,-999.00,-999.0,no,no,no,300234062991690,IMB,AWI-USIABP,unknown,North
2016-10-29T01:00:28Z,1477702829,2016,1,0,303.042,303.042,85.94188,57.99462,-999.00,-999.00,-999.0,no,no,no,300234062991690,IMB,AWI-USIABP,unknown,North
2016-10-30T07:00:28Z,1477810829,2016,7,0,304.292,304.292,86.53996,50.04245,-999.00,-999.00,-999.0,no,no,no,300234062991690,IMB,AWI-USIABP,unknown,North
2016-10-30T13:00:28Z,1477832429,2016,13,0,304.542,304.542,86.51248,50.4206,-999.00,-999.00,-999.0,no,no,no,300234062991690,IMB,AWI-USIABP,unknown,North
2016-10-31T01:00:28Z,1477875629,2016,1,0,305.042,305.042,86.53996,50.04245,-999.00,-999.00,-999.0,no,no,no,300234062991690,IMB,AWI-USIABP,unknown,North
2016-10-31T13:00:28Z,1477918829,2016,13,0,305.542,305.542,86.56729,49.65825,-999.00,-999.00,-999.0,no,no,no,300234062991690,IMB,AWI-USIABP,unknown,North
2016-11-01T01:00:28Z,1477962029,2016,1,0,306.042,306.042,86.03221,55.30485,-999.00,-999.00,-999.0,no,no,no,300234062991690,IMB,AWI-USIABP,unknown,North
2016-11-01T13:00:28Z,1478005229,2016,13,0,306.542,306.542,86.58544,50.96449,-999.00,-999.00,-999.0,no,no,no,300234062991690,IMB,AWI-USIABP,unknown,North
2016-11-02T01:00:28Z,1478048429,2016,1,0,307.042,307.042,86.61314,50.58261,-999.00,-999.00,-999.0,no,no,no,300234062991690,IMB,AWI-USIABP,unknown,North
2016-11-02T13:00:28Z,1478091629,2016,13,0,307.542,307.542,86.68603,51.14663,-999.00,-999.00,-999.0,no,no,no,300234062991690,IMB,AWI-USIABP,unknown,North
2016-11-03T01:00:28Z,1478134829,2016,1,0,308.042,308.042,86.78062,52.23692,-999.00,-999.00,-999.0,no,no,no,300234062991690,IMB,AWI-USIABP,unknown,North
2016-11-03T13:00:28Z,1478178029,2016,13,0,308.542,308.542,86.82393,53.25944,-999.00,-999.00,-999.0,no,no,no,300234062991690,IMB,AWI-USIABP,unknown,North
2016-11-04T01:00:28Z,1478221229,2016,1,0,309.042,309.042,86.26,57.52881,-999.00,-999.00,-999.0,no,no,no,300234062991690,IMB,AWI-USIABP,unknown,North
2016-11-06T19:00:28Z,1478458829,2016,19,0,311.792,311.792,86.85762,55.22217,-999.00,-999.00,-999.0,no,no,no,300234062991690,IMB,AWI-USIABP,unknown,North
2016-11-07T07:00:28Z,1478502029,2016,7,0,312.292,312.292,85.45653,26.76751,-999.00,-999.00,-999.0,no,no,no,300234062991690,IMB,AWI-USIABP,unknown,North
2016-11-07T19:00:28Z,1478545229,2016,19,0,312.792,312.792,87.0069,55.7389,-999.00,-999.00,-999.0,no,no,no,300234062991690,IMB,AWI-USIABP,unknown,North
2016-11-08T07:00:28Z,1478588429,2016,7,0,313.292,313.292,87.09682,54.54453,-999.00,-999.00,-999.0,no,no,no,300234062991690,IMB,AWI-USIABP,unknown,North
2016-11-08T19:00:28Z,1478631629,2016,19,0,313.792,313.792,87.08339,52.98933,-999.00,-999.00,-999.0,no,no,no,300234062991690,IMB,AWI-USIABP,unknown,North
2016-11-09T07:00:28Z,1478674829,2016,7,0,314.292,314.292,87.04541,50.90614,-999.00,-999.00,-999.0,no,no,no,300234062991690,IMB,AWI-USIABP,unknown,North
2016-11-09T19:00:28Z,1478718029,2016,19,0,314.792,314.792,87.02517,49.39871,-999.00,-999.00,-999.0,no,no,no,300234062991690,IMB,AWI-USIABP,unknown,North
2016-11-10T07:00:28Z,1478761229,2016,7,0,315.292,315.292,87.00176,48.87852,-999.00,-999.00,-999.0,no,no,no,300234062991690,IMB,AWI-USIABP,unknown,North
2016-11-10T19:00:28Z,1478804429,2016,19,0,315.792,315.792,87.00476,47.91084,-999.00,-999.00,-999.0,no,no,no,300234062991690,IMB,AWI-USIABP,unknown,North
2016-11-11T07:00:28Z,1478847629,2016,7,0,316.292,316.292,87.00476,47.91084,-999.00,-999.00,-999.0,no,no,no,300234062991690,IMB,AWI-USIABP,unknown,North
2016-11-11T19:00:28Z,1478890829,2016,19,0,316.792,316.792,87.00176,48.87852,-999.00,-999.00,-999.0,no,no,no,300234062991690,IMB,AWI-USIABP,unknown,North
2016-11-12T07:00:28Z,1478934029,2016,7,0,317.292,317.292,87.02703,49.39871,-999.00,-999.00,-999.0,no,no,no,300234062991690,IMB,AWI-USIABP,unknown,North
2016-11-13T19:00:28Z,1479063629,2016,19,0,318.792,318.792,87.18355,53.27589,-999.00,-999.00,-999.0,no,no,no,300234062991690,IMB,AWI-USIABP,unknown,North
2016-11-14T07:00:28Z,1479106829,2016,7,0,319.292,319.292,87.28365,53.58362,-999.00,-999.00,-999.0,no,no,no,300234062991690,IMB,AWI-USIABP,unknown,North
2016-11-14T19:00:28Z,1479150029,2016,19,0,319.792,319.792,87.27564,54.63754,-999.00,-999.00,-999.0,no,no,no,300234062991690,IMB,AWI-USIABP,unknown,North
2016-11-15T07:00:28Z,1479193229,2016,7,0,320.292,320.292,87.43368,54.09028,-999.00,-999.00,-999.0,no,no,no,300234062991690,IMB,AWI-USIABP,unknown,North
2016-11-15T19:00:28Z,1479236429,2016,19,0,320.792,320.792,87.48365,54.2726,-999.00,-999.00,-999.0,no,no,no,300234062991690,IMB,AWI-USIABP,unknown,North
2016-11-19T13:00:28Z,1479560429,2016,13,0,324.542,324.542,87.49514,56.08257,-999.00,-999.00,-999.0,no,no,no,300234062991690,IMB,AWI-USIABP,unknown,North
2016-11-20T01:00:28Z,1479603629,2016,1,0,325.042,325.042,87.53359,54.46232,-999.00,-999.00,-999.0,no,no,no,300234062991690,IMB,AWI-USIABP,unknown,North
2016-11-22T01:00:28Z,1479776429,2016,1,0,327.042,327.042,86.85741,57.57894,-999.00,-999.00,-999.0,no,no,no,300234062991690,IMB,AWI-USIABP,unknown,North
2016-11-22T13:00:28Z,1479819629,2016,13,0,327.542,327.542,87.55423,55.14554,-999.00,-999.00,-999.0,no,no,no,300234062991690,IMB,AWI-USIABP,unknown,North
2016-11-23T01:00:28Z,1479862829,2016,1,0,328.042,328.042,87.58351,54.65989,-999.00,-999.00,-999.0,no,no,no,300234062991690,IMB,AWI-USIABP,unknown,North
2016-11-23T13:00:28Z,1479906029,2016,13,0,328.542,328.542,87.5745,55.84031,-999.00,-999.00,-999.0,no,no,no,300234062991690,IMB,AWI-USIABP,unknown,North
2016-11-24T01:00:28Z,1479949229,2016,1,0,329.042,329.042,87.58351,54.65989,-999.00,-999.00,-999.0,no,no,no,300234062991690,IMB,AWI-USIABP,unknown,North
2016-11-24T13:00:28Z,1479992429,2016,13,0,329.542,329.542,87.59149,53.47114,-999.00,-999.00,-999.0,no,no,no,300234062991690,IMB,AWI-USIABP,unknown,North
2016-11-24T19:00:28Z,1480014029,2016,19,0,329.792,329.792,87.54141,53.29714,-999.00,-999.00,-999.0,no,no,no,300234062991690,IMB,AWI-USIABP,unknown,North
2016-11-25T01:00:28Z,1480035629,2016,1,0,330.042,330.042,86.8662,54.30994,-999.00,-999.00,-999.0,no,no,no,300234062991690,IMB,AWI-USIABP,unknown,North
2016-11-25T07:00:28Z,1480057229,2016,7,0,330.292,330.292,87.54141,53.29714,-999.00,-999.00,-999.0,no,no,no,300234062991690,IMB,AWI-USIABP,unknown,North
2016-11-25T13:00:28Z,1480078829,2016,13,0,330.542,330.542,87.54141,53.29714,-999.00,-999.00,-999.0,no,no,no,300234062991690,IMB,AWI-USIABP,unknown,North
2016-11-25T19:00:28Z,1480100429,2016,19,0,330.792,330.792,87.52606,51.46982,-999.00,-999.00,-999.0,no,no,no,300234062991690,IMB,AWI-USIABP,unknown,North
2016-11-26T01:00:28Z,1480122029,2016,1,0,331.042,331.042,87.52606,51.46982,-999.00,-999.00,-999.0,no,no,no,300234062991690,IMB,AWI-USIABP,unknown,North
2016-11-26T07:00:28Z,1480143629,2016,7,0,331.292,331.292,87.60431,51.07246,-999.00,-999.00,-999.0,no,no,no,300234062991690,IMB,AWI-USIABP,unknown,North
2016-11-26T13:00:28Z,1480165229,2016,13,0,331.542,331.542,87.50361,50.82634,-999.00,-999.00,-999.0,no,no,no,300234062991690,IMB,AWI-USIABP,unknown,North
2016-11-26T19:00:28Z,1480186829,2016,19,0,331.792,331.792,87.48085,50.19443,-999.00,-999.00,-999.0,no,no,no,300234062991690,IMB,AWI-USIABP,unknown,North
2016-11-27T01:00:28Z,1480208429,2016,1,0,332.042,332.042,87.53125,50.30093,-999.00,-999.00,-999.0,no,no,no,300234062991690,IMB,AWI-USIABP,unknown,North
2016-11-27T07:00:28Z,1480230029,2016,7,0,332.292,332.292,87.48085,50.19443,-999.00,-999.00,-999.0,no,no,no,300234062991690,IMB,AWI-USIABP,unknown,North
2016-11-27T13:00:28Z,1480251629,2016,13,0,332.542,332.542,87.53125,50.30093,-999.00,-999.00,-999.0,no,no,no,300234062991690,IMB,AWI-USIABP,unknown,North
2016-11-27T19:00:28Z,1480273229,2016,19,0,332.792,332.792,87.50824,49.66686,-999.00,-999.00,-999.0,no,no,no,300234062991690,IMB,AWI-USIABP,unknown,North
2016-11-28T01:00:28Z,1480294829,2016,1,0,333.042,333.042,86.74142,50.35583,-999.00,-999.00,-999.0,no,no,no,300234062991690,IMB,AWI-USIABP,unknown,North
2016-11-28T07:00:28Z,1480316429,2016,7,0,333.292,333.292,87.50824,49.66686,-999.00,-999.00,-999.0,no,no,no,300234062991690,IMB,AWI-USIABP,unknown,North
2016-11-28T13:00:28Z,1480338029,2016,13,0,333.542,333.542,87.48492,49.04449,-999.00,-999.00,-999.0,no,no,no,300234062991690,IMB,AWI-USIABP,unknown,North
2016-11-28T19:00:28Z,1480359629,2016,19,0,333.792,333.792,87.50824,49.66686,-999.00,-999.00,-999.0,no,no,no,300234062991690,IMB,AWI-USIABP,unknown,North
2016-11-29T01:00:28Z,1480381229,2016,1,0,334.042,334.042,87.53854,47.95078,-999.00,-999.00,-999.0,no,no,no,300234062991690,IMB,AWI-USIABP,unknown,North
2016-11-29T07:00:28Z,1480402829,2016,7,0,334.292,334.292,87.55869,49.76364,-999.00,-999.00,-999.0,no,no,no,300234062991690,IMB,AWI-USIABP,unknown,North
2016-11-29T13:00:28Z,1480424429,2016,13,0,334.542,334.542,87.50824,49.66686,-999.00,-999.00,-999.0,no,no,no,300234062991690,IMB,AWI-USIABP,unknown,North
2016-11-29T19:00:28Z,1480446029,2016,19,0,334.792,334.792,87.48492,49.04449,-999.00,-999.00,-999.0,no,no,no,300234062991690,IMB,AWI-USIABP,unknown,North
2016-11-30T01:00:28Z,1480467629,2016,1,0,335.042,335.042,87.55869,49.76364,-999.00,-999.00,-999.0,no,no,no,300234062991690,IMB,AWI-USIABP,unknown,North
2016-11-30T07:00:28Z,1480489229,2016,7,0,335.292,335.292,87.53541,49.12759,-999.00,-999.00,-999.0,no,no,no,300234062991690,IMB,AWI-USIABP,unknown,North
2016-11-30T13:00:28Z,1480510829,2016,13,0,335.542,335.542,87.55869,49.76364,-999.00,-999.00,-999.0,no,no,no,300234062991690,IMB,AWI-USIABP,unknown,North
2016-11-30T19:00:28Z,1480532429,2016,19,0,335.792,335.792,87.48492,49.04449,-999.00,-999.00,-999.0,no,no,no,300234062991690,IMB,AWI-USIABP,unknown,North
2016-12-01T01:00:28Z,1480554029,2016,1,0,336.042,336.042,86.7493,48.57633,-999.00,-999.00,-999.0,no,no,no,300234062991690,IMB,AWI-USIABP,unknown,North
2016-12-01T07:00:28Z,1480575629,2016,7,0,336.292,336.292,87.48085,50.19443,-999.00,-999.00,-999.0,no,no,no,300234062991690,IMB,AWI-USIABP,unknown,North
2016-12-01T13:00:28Z,1480597229,2016,13,0,336.542,336.542,87.43043,50.09212,-999.00,-999.00,-999.0,no,no,no,300234062991690,IMB,AWI-USIABP,unknown,North
2016-12-01T19:00:28Z,1480618829,2016,19,0,336.792,336.792,87.43043,50.09212,-999.00,-999.00,-999.0,no,no,no,300234062991690,IMB,AWI-USIABP,unknown,North
2016-12-02T01:00:28Z,1480640429,2016,1,0,337.042,337.042,87.45778,49.57392,-999.00,-999.00,-999.0,no,no,no,300234062991690,IMB,AWI-USIABP,unknown,North
2016-12-02T07:00:28Z,1480662029,2016,7,0,337.292,337.292,87.52606,51.46982,-999.00,-999.00,-999.0,no,no,no,300234062991690,IMB,AWI-USIABP,unknown,North
2016-12-02T13:00:28Z,1480683629,2016,13,0,337.542,337.542,87.42545,51.21564,-999.00,-999.00,-999.0,no,no,no,300234062991690,IMB,AWI-USIABP,unknown,North
2016-12-02T19:00:28Z,1480705229,2016,19,0,337.792,337.792,87.39745,51.70984,-999.00,-999.00,-999.0,no,no,no,300234062991690,IMB,AWI-USIABP,unknown,North
2016-12-03T01:00:28Z,1480726829,2016,1,0,338.042,338.042,87.41947,52.33438,-999.00,-999.00,-999.0,no,no,no,300234062991690,IMB,AWI-USIABP,unknown,North
2016-12-03T07:00:28Z,1480748429,2016,7,0,338.292,338.292,87.49131,53.1301,-999.00,-999.00,-999.0,no,no,no,300234062991690,IMB,AWI-USIABP,unknown,North
2016-12-03T13:00:28Z,1480770029,2016,13,0,338.542,338.542,87.42545,51.21564,-999.00,-999.00,-999.0,no,no,no,300234062991690,IMB,AWI-USIABP,unknown,North
2016-12-03T19:00:28Z,1480791629,2016,19,0,338.792,338.792,87.30213,50.38931,-999.00,-999.00,-999.0,no,no,no,300234062991690,IMB,AWI-USIABP,unknown,North
2016-12-04T01:00:28Z,1480813229,2016,1,0,339.042,339.042,86.64833,48.46823,-999.00,-999.00,-999.0,no,no,no,300234062991690,IMB,AWI-USIABP,unknown,North
2016-12-04T07:00:28Z,1480834829,2016,7,0,339.292,339.292,87.25174,50.29008,-999.00,-999.00,-999.0,no,no,no,300234062991690,IMB,AWI-USIABP,unknown,North
2016-12-04T13:00:28Z,1480856429,2016,13,0,339.542,339.542,87.27446,50.8696,-999.00,-999.00,-999.0,no,no,no,300234062991690,IMB,AWI-USIABP,unknown,North
2016-12-04T19:00:28Z,1480878029,2016,19,0,339.792,339.792,87.26883,51.92722,-999.00,-999.00,-999.0,no,no,no,300234062991690,IMB,AWI-USIABP,unknown,North
2016-12-05T01:00:28Z,1480899629,2016,1,0,340.042,340.042,87.27446,50.8696,-999.00,-999.00,-999.0,no,no,no,300234062991690,IMB,AWI-USIABP,unknown,North
2016-12-05T07:00:28Z,1480921229,2016,7,0,340.292,340.292,87.25174,50.29008,-999.00,-999.00,-999.0,no,no,no,300234062991690,IMB,AWI-USIABP,unknown,North
2016-12-05T13:00:28Z,1480942829,2016,13,0,340.542,340.542,87.27446,50.8696,-999.00,-999.00,-999.0,no,no,no,300234062991690,IMB,AWI-USIABP,unknown,North
2016-12-05T19:00:28Z,1480964429,2016,19,0,340.792,340.792,87.25174,50.29008,-999.00,-999.00,-999.0,no,no,no,300234062991690,IMB,AWI-USIABP,unknown,North
2016-12-06T01:00:28Z,1480986029,2016,1,0,341.042,341.042,87.27917,49.80795,-999.00,-999.00,-999.0,no,no,no,300234062991690,IMB,AWI-USIABP,unknown,North
2016-12-06T13:00:28Z,1481029229,2016,13,0,341.542,341.542,87.30213,50.38931,-999.00,-999.00,-999.0,no,no,no,300234062991690,IMB,AWI-USIABP,unknown,North
2016-12-06T19:00:28Z,1481050829,2016,19,0,341.792,341.792,87.25174,50.29008,-999.00,-999.00,-999.0,no,no,no,300234062991690,IMB,AWI-USIABP,unknown,North
2016-12-07T07:00:28Z,1481094029,2016,7,0,342.292,342.292,87.23245,48.6745,-999.00,-999.00,-999.0,no,no,no,300234062991690,IMB,AWI-USIABP,unknown,North
2016-12-08T01:00:28Z,1481158829,2016,1,0,343.042,343.042,87.26296,46.06091,-999.00,-999.00,-999.0,no,no,no,300234062991690,IMB,AWI-USIABP,unknown,North
2016-12-08T07:00:28Z,1481180429,2016,7,0,343.292,343.292,87.21237,46.04163,-999.00,-999.00,-999.0,no,no,no,300234062991690,IMB,AWI-USIABP,unknown,North
2016-12-08T13:00:28Z,1481202029,2016,13,0,343.542,343.542,87.18651,46.54816,-999.00,-999.00,-999.0,no,no,no,300234062991690,IMB,AWI-USIABP,unknown,North